"Sample Date","Sample Time","Sample Value","Units","Flow Rate","Number Channels","Micron Size 0","Counts/Channel 0","Micron Size 1","Counts/Channel 1","Micron Size 2","Counts/Channel 2","Micron Size 3","Counts/Channel 3","Micron Size 4","Counts/Channel 4","Micron Size 5","Counts/Channel 5","Micron Size 6","Counts/Channel 6","Micron Size 7","Counts/Channel 7","Micron Size 8","Counts/Channel 8","Micron Size 9","Counts/Channel 9","Micron Size 10","Counts/Channel 10","Micron Size 11","Counts/Channel 11","Micron Size 12","Counts/Channel 12","Micron Size 13","Counts/Channel 13","Micron Size 14","Counts/Channel 14","Micron Size 15","Counts/Channel 15","Micron Size 16","Counts/Channel 16","Micron Size 17","Counts/Channel 17","Micron Size 18","Counts/Channel 18","Micron Size 19","Counts/Channel 19","Micron Size 20","Counts/Channel 20","Micron Size 21","Counts/Channel 21","Micron Size 22","Counts/Channel 22","Micron Size 23","Counts/Channel 23","Micron Size 24","Counts/Channel 24","Micron Size 25","Counts/Channel 25","Micron Size 26","Counts/Channel 26","Micron Size 27","Counts/Channel 27","Micron Size 28","Counts/Channel 28","Micron Size 29","Counts/Channel 29","Micron Size 30","Counts/Channel 30","Micron Size 31","Counts/Channel 31"
"05/06/08","07:00:00",18.000,"cc",27980.256,6,0.100,14.000,0.200,4.000,0.300,0,0.500,0,1.000,0,5.000,0
"05/06/08","07:00:06",17.000,"cc",28036.686,6,0.100,15.000,0.200,1.000,0.300,1.000,0.500,0,1.000,0,5.000,0
"05/06/08","07:00:12",15.000,"cc",28028.129,6,0.100,14.000,0.200,1.000,0.300,0,0.500,0,1.000,0,5.000,0
"05/06/08","07:00:18",18.000,"cc",27984.656,6,0.100,14.000,0.200,4.000,0.300,0,0.500,0,1.000,0,5.000,0
"05/06/08","07:00:24",29.000,"cc",28004.545,6,0.100,28.000,0.200,1.000,0.300,0,0.500,0,1.000,0,5.000,0
"05/06/08","07:00:30",24.000,"cc",27976.496,6,0.100,16.000,0.200,7.000,0.300,1.000,0.500,0,1.000,0,5.000,0
"05/06/08","07:00:36",20.000,"cc",28006.867,6,0.100,18.000,0.200,2.000,0.300,0,0.500,0,1.000,0,5.000,0
"05/06/08","07:00:42",26.000,"cc",27994.701,6,0.100,18.000,0.200,6.000,0.300,2.000,0.500,0,1.000,0,5.000,0
"05/06/08","07:00:48",9.000,"cc",28067.721,6,0.100,7.000,0.200,2.000,0.300,0,0.500,0,1.000,0,5.000,0
"05/06/08","07:00:54",16.000,"cc",28103.797,6,0.100,14.000,0.200,2.000,0.300,0,0.500,0,1.000,0,5.000,0
"05/06/08","07:01:00",20.000,"cc",28038.346,6,0.100,15.000,0.200,5.000,0.300,0,0.500,0,1.000,0,5.000,0
"05/06/08","07:01:06",12.000,"cc",27981.779,6,0.100,8.000,0.200,4.000,0.300,0,0.500,0,1.000,0,5.000,0
"05/06/08","07:01:12",15.000,"cc",28026.432,6,0.100,12.000,0.200,3.000,0.300,0,0.500,0,1.000,0,5.000,0
"05/06/08","07:01:18",19.000,"cc",28013.217,6,0.100,13.000,0.200,6.000,0.300,0,0.500,0,1.000,0,5.000,0
"05/06/08","07:01:24",18.000,"cc",28075.494,6,0.100,14.000,0.200,3.000,0.300,1.000,0.500,0,1.000,0,5.000,0
"05/06/08","07:01:30",15.000,"cc",28094.190,6,0.100,13.000,0.200,2.000,0.300,0,0.500,0,1.000,0,5.000,0
"05/06/08","07:01:36",12.000,"cc",28010.051,6,0.100,11.000,0.200,1.000,0.300,0,0.500,0,1.000,0,5.000,0
"05/06/08","07:01:42",14.000,"cc",28059.543,6,0.100,12.000,0.200,2.000,0.300,0,0.500,0,1.000,0,5.000,0
"05/06/08","07:01:48",15.000,"cc",28105.248,6,0.100,13.000,0.200,2.000,0.300,0,0.500,0,1.000,0,5.000,0
"05/06/08","07:01:54",20.000,"cc",28030.113,6,0.100,15.000,0.200,4.000,0.300,1.000,0.500,0,1.000,0,5.000,0
"05/06/08","07:02:00",13.000,"cc",28056.580,6,0.100,13.000,0.200,0,0.300,0,0.500,0,1.000,0,5.000,0
"05/06/08","07:02:06",19.000,"cc",28149.023,6,0.100,17.000,0.200,1.000,0.300,1.000,0.500,0,1.000,0,5.000,0
"05/06/08","07:02:12",12.000,"cc",28014.031,6,0.100,11.000,0.200,1.000,0.300,0,0.500,0,1.000,0,5.000,0
"05/06/08","07:02:18",20.000,"cc",27999.303,6,0.100,18.000,0.200,2.000,0.300,0,0.500,0,1.000,0,5.000,0
"05/06/08","07:02:24",16.000,"cc",28016.881,6,0.100,12.000,0.200,4.000,0.300,0,0.500,0,1.000,0,5.000,0
"05/06/08","07:02:30",18.000,"cc",28042.838,6,0.100,15.000,0.200,2.000,0.300,1.000,0.500,0,1.000,0,5.000,0
"05/06/08","07:02:36",25.000,"cc",27901.342,6,0.100,21.000,0.200,3.000,0.300,1.000,0.500,0,1.000,0,5.000,0
"05/06/08","07:02:42",13.000,"cc",27882.301,6,0.100,11.000,0.200,2.000,0.300,0,0.500,0,1.000,0,5.000,0
"05/06/08","07:02:48",15.000,"cc",28005.897,6,0.100,14.000,0.200,1.000,0.300,0,0.500,0,1.000,0,5.000,0
"05/06/08","07:02:54",16.000,"cc",28058.639,6,0.100,15.000,0.200,1.000,0.300,0,0.500,0,1.000,0,5.000,0
"05/06/08","07:03:00",18.000,"cc",28037.934,6,0.100,15.000,0.200,3.000,0.300,0,0.500,0,1.000,0,5.000,0
"05/06/08","07:03:06",16.000,"cc",28056.693,6,0.100,14.000,0.200,2.000,0.300,0,0.500,0,1.000,0,5.000,0
"05/06/08","07:03:12",17.000,"cc",28040.115,6,0.100,15.000,0.200,2.000,0.300,0,0.500,0,1.000,0,5.000,0
"05/06/08","07:03:18",14.000,"cc",28033.061,6,0.100,12.000,0.200,2.000,0.300,0,0.500,0,1.000,0,5.000,0
"05/06/08","07:03:24",26.000,"cc",28091.523,6,0.100,22.000,0.200,4.000,0.300,0,0.500,0,1.000,0,5.000,0
"05/06/08","07:03:30",14.000,"cc",28062.645,6,0.100,13.000,0.200,1.000,0.300,0,0.500,0,1.000,0,5.000,0
"05/06/08","07:03:36",12.000,"cc",28069.898,6,0.100,10.000,0.200,2.000,0.300,0,0.500,0,1.000,0,5.000,0
"05/06/08","07:03:42",8.000,"cc",28074.260,6,0.100,8.000,0.200,0,0.300,0,0.500,0,1.000,0,5.000,0
"05/06/08","07:03:48",10.000,"cc",28015.246,6,0.100,9.000,0.200,1.000,0.300,0,0.500,0,1.000,0,5.000,0
"05/06/08","07:03:54",19.000,"cc",27987.193,6,0.100,16.000,0.200,3.000,0.300,0,0.500,0,1.000,0,5.000,0
"05/06/08","07:04:00",14.000,"cc",28002.906,6,0.100,13.000,0.200,1.000,0.300,0,0.500,0,1.000,0,5.000,0
"05/06/08","07:04:06",21.000,"cc",28036.645,6,0.100,18.000,0.200,2.000,0.300,1.000,0.500,0,1.000,0,5.000,0
"05/06/08","07:04:12",14.000,"cc",28014.410,6,0.100,14.000,0.200,0,0.300,0,0.500,0,1.000,0,5.000,0
"05/06/08","07:04:18",17.000,"cc",28048.178,6,0.100,13.000,0.200,4.000,0.300,0,0.500,0,1.000,0,5.000,0
"05/06/08","07:04:24",19.000,"cc",28071.488,6,0.100,17.000,0.200,2.000,0.300,0,0.500,0,1.000,0,5.000,0
"05/06/08","07:04:30",15.000,"cc",28004.109,6,0.100,9.000,0.200,5.000,0.300,1.000,0.500,0,1.000,0,5.000,0
"05/06/08","07:04:36",13.000,"cc",28001.305,6,0.100,10.000,0.200,3.000,0.300,0,0.500,0,1.000,0,5.000,0
"05/06/08","07:04:42",12.000,"cc",28039.438,6,0.100,12.000,0.200,0,0.300,0,0.500,0,1.000,0,5.000,0
"05/06/08","07:04:48",10.000,"cc",28016.244,6,0.100,8.000,0.200,2.000,0.300,0,0.500,0,1.000,0,5.000,0
"05/06/08","07:04:54",22.000,"cc",27920.897,6,0.100,20.000,0.200,2.000,0.300,0,0.500,0,1.000,0,5.000,0
"05/06/08","07:05:00",17.000,"cc",27931.645,6,0.100,16.000,0.200,0,0.300,1.000,0.500,0,1.000,0,5.000,0
"05/06/08","07:05:06",17.000,"cc",27985.758,6,0.100,15.000,0.200,2.000,0.300,0,0.500,0,1.000,0,5.000,0
"05/06/08","07:05:12",25.000,"cc",28060.012,6,0.100,20.000,0.200,5.000,0.300,0,0.500,0,1.000,0,5.000,0
"05/06/08","07:05:18",12.000,"cc",28091.793,6,0.100,11.000,0.200,1.000,0.300,0,0.500,0,1.000,0,5.000,0
"05/06/08","07:05:24",11.000,"cc",28049.273,6,0.100,10.000,0.200,1.000,0.300,0,0.500,0,1.000,0,5.000,0
"05/06/08","07:05:30",16.000,"cc",28035.141,6,0.100,9.000,0.200,7.000,0.300,0,0.500,0,1.000,0,5.000,0
"05/06/08","07:05:36",13.000,"cc",27936.014,6,0.100,10.000,0.200,3.000,0.300,0,0.500,0,1.000,0,5.000,0
"05/06/08","07:05:42",17.000,"cc",27986.898,6,0.100,13.000,0.200,3.000,0.300,1.000,0.500,0,1.000,0,5.000,0
"05/06/08","07:05:48",22.000,"cc",27945.139,6,0.100,19.000,0.200,3.000,0.300,0,0.500,0,1.000,0,5.000,0
"05/06/08","07:05:54",15.000,"cc",27986.695,6,0.100,13.000,0.200,2.000,0.300,0,0.500,0,1.000,0,5.000,0
"05/06/08","07:06:00",21.000,"cc",27990.379,6,0.100,17.000,0.200,4.000,0.300,0,0.500,0,1.000,0,5.000,0
"05/06/08","07:06:06",14.000,"cc",27996.414,6,0.100,12.000,0.200,2.000,0.300,0,0.500,0,1.000,0,5.000,0
"05/06/08","07:06:12",21.000,"cc",27927.287,6,0.100,16.000,0.200,5.000,0.300,0,0.500,0,1.000,0,5.000,0
"05/06/08","07:06:18",16.000,"cc",27941.342,6,0.100,15.000,0.200,1.000,0.300,0,0.500,0,1.000,0,5.000,0
"05/06/08","07:06:24",21.000,"cc",27887.815,6,0.100,18.000,0.200,3.000,0.300,0,0.500,0,1.000,0,5.000,0
"05/06/08","07:06:30",9.000,"cc",28018.988,6,0.100,8.000,0.200,1.000,0.300,0,0.500,0,1.000,0,5.000,0
"05/06/08","07:06:36",16.000,"cc",28054.303,6,0.100,13.000,0.200,3.000,0.300,0,0.500,0,1.000,0,5.000,0
"05/06/08","07:06:42",20.000,"cc",27927.098,6,0.100,18.000,0.200,1.000,0.300,0,0.500,1.000,1.000,0,5.000,0
"05/06/08","07:06:48",12.000,"cc",28075.617,6,0.100,11.000,0.200,1.000,0.300,0,0.500,0,1.000,0,5.000,0
"05/06/08","07:06:54",7.000,"cc",28009.816,6,0.100,4.000,0.200,3.000,0.300,0,0.500,0,1.000,0,5.000,0
"05/06/08","07:07:00",19.000,"cc",27930.809,6,0.100,16.000,0.200,2.000,0.300,1.000,0.500,0,1.000,0,5.000,0
"05/06/08","07:07:06",14.000,"cc",28009.975,6,0.100,14.000,0.200,0,0.300,0,0.500,0,1.000,0,5.000,0
"05/06/08","07:07:12",12.000,"cc",27996.527,6,0.100,7.000,0.200,5.000,0.300,0,0.500,0,1.000,0,5.000,0
"05/06/08","07:07:18",13.000,"cc",27987.955,6,0.100,11.000,0.200,2.000,0.300,0,0.500,0,1.000,0,5.000,0
"05/06/08","07:07:24",21.000,"cc",27934.379,6,0.100,17.000,0.200,3.000,0.300,1.000,0.500,0,1.000,0,5.000,0
"05/06/08","07:07:30",19.000,"cc",27887.518,6,0.100,15.000,0.200,4.000,0.300,0,0.500,0,1.000,0,5.000,0
"05/06/08","07:07:36",14.000,"cc",27932.701,6,0.100,12.000,0.200,2.000,0.300,0,0.500,0,1.000,0,5.000,0
"05/06/08","07:07:42",21.000,"cc",27909.957,6,0.100,19.000,0.200,1.000,0.300,1.000,0.500,0,1.000,0,5.000,0
"05/06/08","07:07:48",19.000,"cc",27986.287,6,0.100,16.000,0.200,3.000,0.300,0,0.500,0,1.000,0,5.000,0
"05/06/08","07:07:54",22.000,"cc",27978.889,6,0.100,18.000,0.200,4.000,0.300,0,0.500,0,1.000,0,5.000,0
"05/06/08","07:08:00",19.000,"cc",27993.481,6,0.100,15.000,0.200,4.000,0.300,0,0.500,0,1.000,0,5.000,0
"05/06/08","07:08:06",16.000,"cc",28061.176,6,0.100,14.000,0.200,2.000,0.300,0,0.500,0,1.000,0,5.000,0
"05/06/08","07:08:12",16.000,"cc",28068.195,6,0.100,14.000,0.200,2.000,0.300,0,0.500,0,1.000,0,5.000,0
"05/06/08","07:08:18",26.000,"cc",28000.201,6,0.100,18.000,0.200,6.000,0.300,2.000,0.500,0,1.000,0,5.000,0
"05/06/08","07:08:24",8.000,"cc",27892.055,6,0.100,7.000,0.200,1.000,0.300,0,0.500,0,1.000,0,5.000,0
"05/06/08","07:08:30",20.000,"cc",27945.190,6,0.100,18.000,0.200,2.000,0.300,0,0.500,0,1.000,0,5.000,0
"05/06/08","07:08:36",19.000,"cc",27954.031,6,0.100,15.000,0.200,4.000,0.300,0,0.500,0,1.000,0,5.000,0
"05/06/08","07:08:42",13.000,"cc",27968.109,6,0.100,12.000,0.200,1.000,0.300,0,0.500,0,1.000,0,5.000,0
"05/06/08","07:08:48",18.000,"cc",27912.006,6,0.100,16.000,0.200,2.000,0.300,0,0.500,0,1.000,0,5.000,0
"05/06/08","07:08:54",12.000,"cc",27972.486,6,0.100,10.000,0.200,1.000,0.300,1.000,0.500,0,1.000,0,5.000,0
"05/06/08","07:09:00",25.000,"cc",27937.955,6,0.100,21.000,0.200,4.000,0.300,0,0.500,0,1.000,0,5.000,0
"05/06/08","07:09:06",12.000,"cc",27969.816,6,0.100,11.000,0.200,1.000,0.300,0,0.500,0,1.000,0,5.000,0
"05/06/08","07:09:12",16.000,"cc",27867.672,6,0.100,15.000,0.200,1.000,0.300,0,0.500,0,1.000,0,5.000,0
"05/06/08","07:09:18",17.000,"cc",27927.830,6,0.100,17.000,0.200,0,0.300,0,0.500,0,1.000,0,5.000,0
"05/06/08","07:09:24",22.000,"cc",27988.918,6,0.100,19.000,0.200,3.000,0.300,0,0.500,0,1.000,0,5.000,0
"05/06/08","07:09:30",20.000,"cc",27927.225,6,0.100,18.000,0.200,2.000,0.300,0,0.500,0,1.000,0,5.000,0
"05/06/08","07:09:36",21.000,"cc",27983.104,6,0.100,17.000,0.200,4.000,0.300,0,0.500,0,1.000,0,5.000,0
"05/06/08","07:09:42",14.000,"cc",27953.576,6,0.100,13.000,0.200,0,0.300,1.000,0.500,0,1.000,0,5.000,0
"05/06/08","07:09:48",8.000,"cc",28050.291,6,0.100,6.000,0.200,1.000,0.300,1.000,0.500,0,1.000,0,5.000,0
"05/06/08","07:09:54",13.000,"cc",27921.705,6,0.100,11.000,0.200,2.000,0.300,0,0.500,0,1.000,0,5.000,0
"05/06/08","07:10:00",18.000,"cc",27875.543,6,0.100,16.000,0.200,2.000,0.300,0,0.500,0,1.000,0,5.000,0
"05/06/08","07:10:06",12.000,"cc",27937.943,6,0.100,9.000,0.200,2.000,0.300,1.000,0.500,0,1.000,0,5.000,0
"05/06/08","07:10:12",14.000,"cc",27988.670,6,0.100,11.000,0.200,3.000,0.300,0,0.500,0,1.000,0,5.000,0
"05/06/08","07:10:18",12.000,"cc",27931.061,6,0.100,12.000,0.200,0,0.300,0,0.500,0,1.000,0,5.000,0
"05/06/08","07:10:24",24.000,"cc",27928.793,6,0.100,18.000,0.200,6.000,0.300,0,0.500,0,1.000,0,5.000,0
"05/06/08","07:10:30",9.000,"cc",27891.813,6,0.100,9.000,0.200,0,0.300,0,0.500,0,1.000,0,5.000,0
"05/06/08","07:10:36",12.000,"cc",27970.338,6,0.100,10.000,0.200,2.000,0.300,0,0.500,0,1.000,0,5.000,0
"05/06/08","07:10:42",14.000,"cc",27886.604,6,0.100,12.000,0.200,2.000,0.300,0,0.500,0,1.000,0,5.000,0
"05/06/08","07:10:48",16.000,"cc",27988.434,6,0.100,13.000,0.200,2.000,0.300,1.000,0.500,0,1.000,0,5.000,0
"05/06/08","07:10:54",23.000,"cc",27976.576,6,0.100,19.000,0.200,4.000,0.300,0,0.500,0,1.000,0,5.000,0
"05/06/08","07:11:00",18.000,"cc",27981.647,6,0.100,15.000,0.200,3.000,0.300,0,0.500,0,1.000,0,5.000,0
"05/06/08","07:11:06",21.000,"cc",27870.041,6,0.100,18.000,0.200,3.000,0.300,0,0.500,0,1.000,0,5.000,0
"05/06/08","07:11:12",17.000,"cc",27937.762,6,0.100,17.000,0.200,0,0.300,0,0.500,0,1.000,0,5.000,0
"05/06/08","07:11:18",17.000,"cc",27939.252,6,0.100,14.000,0.200,3.000,0.300,0,0.500,0,1.000,0,5.000,0
"05/06/08","07:11:24",16.000,"cc",27900.354,6,0.100,10.000,0.200,5.000,0.300,0,0.500,1.000,1.000,0,5.000,0
"05/06/08","07:11:30",13.000,"cc",28019.973,6,0.100,9.000,0.200,4.000,0.300,0,0.500,0,1.000,0,5.000,0
"05/06/08","07:11:36",17.000,"cc",28023.299,6,0.100,14.000,0.200,3.000,0.300,0,0.500,0,1.000,0,5.000,0
"05/06/08","07:11:42",14.000,"cc",28004.049,6,0.100,13.000,0.200,1.000,0.300,0,0.500,0,1.000,0,5.000,0
"05/06/08","07:11:48",15.000,"cc",28022.918,6,0.100,11.000,0.200,3.000,0.300,1.000,0.500,0,1.000,0,5.000,0
"05/06/08","07:11:54",20.000,"cc",28088.266,6,0.100,19.000,0.200,1.000,0.300,0,0.500,0,1.000,0,5.000,0
"05/06/08","07:12:00",16.000,"cc",28070.424,6,0.100,13.000,0.200,3.000,0.300,0,0.500,0,1.000,0,5.000,0
"05/06/08","07:12:06",15.000,"cc",28084.647,6,0.100,14.000,0.200,1.000,0.300,0,0.500,0,1.000,0,5.000,0
"05/06/08","07:12:12",20.000,"cc",28033.883,6,0.100,16.000,0.200,4.000,0.300,0,0.500,0,1.000,0,5.000,0
"05/06/08","07:12:18",11.000,"cc",28088.695,6,0.100,8.000,0.200,3.000,0.300,0,0.500,0,1.000,0,5.000,0
"05/06/08","07:12:24",18.000,"cc",28090.328,6,0.100,16.000,0.200,2.000,0.300,0,0.500,0,1.000,0,5.000,0
"05/06/08","07:12:30",16.000,"cc",28105.369,6,0.100,13.000,0.200,3.000,0.300,0,0.500,0,1.000,0,5.000,0
"05/06/08","07:12:36",19.000,"cc",28164.080,6,0.100,17.000,0.200,2.000,0.300,0,0.500,0,1.000,0,5.000,0
"05/06/08","07:12:42",18.000,"cc",28092.049,6,0.100,17.000,0.200,1.000,0.300,0,0.500,0,1.000,0,5.000,0
"05/06/08","07:12:48",19.000,"cc",28063.453,6,0.100,14.000,0.200,4.000,0.300,1.000,0.500,0,1.000,0,5.000,0
"05/06/08","07:12:54",23.000,"cc",28158.731,6,0.100,18.000,0.200,5.000,0.300,0,0.500,0,1.000,0,5.000,0
"05/06/08","07:13:00",14.000,"cc",28133.658,6,0.100,10.000,0.200,4.000,0.300,0,0.500,0,1.000,0,5.000,0
"05/06/08","07:13:06",14.000,"cc",27989.459,6,0.100,12.000,0.200,2.000,0.300,0,0.500,0,1.000,0,5.000,0
"05/06/08","07:13:12",16.000,"cc",28065.551,6,0.100,14.000,0.200,2.000,0.300,0,0.500,0,1.000,0,5.000,0
"05/06/08","07:13:18",20.000,"cc",28004.270,6,0.100,17.000,0.200,3.000,0.300,0,0.500,0,1.000,0,5.000,0
"05/06/08","07:13:24",28.000,"cc",28026.137,6,0.100,25.000,0.200,3.000,0.300,0,0.500,0,1.000,0,5.000,0
"05/06/08","07:13:30",25.000,"cc",28205.672,6,0.100,22.000,0.200,3.000,0.300,0,0.500,0,1.000,0,5.000,0
"05/06/08","07:13:36",14.000,"cc",28134.830,6,0.100,14.000,0.200,0,0.300,0,0.500,0,1.000,0,5.000,0
"05/06/08","07:13:42",19.000,"cc",28119.637,6,0.100,15.000,0.200,2.000,0.300,2.000,0.500,0,1.000,0,5.000,0
"05/06/08","07:13:48",12.000,"cc",28098.965,6,0.100,12.000,0.200,0,0.300,0,0.500,0,1.000,0,5.000,0
"05/06/08","07:13:54",11.000,"cc",28131.039,6,0.100,8.000,0.200,3.000,0.300,0,0.500,0,1.000,0,5.000,0
"05/06/08","07:14:00",10.000,"cc",28146.900,6,0.100,6.000,0.200,4.000,0.300,0,0.500,0,1.000,0,5.000,0
"05/06/08","07:14:06",16.000,"cc",28103.256,6,0.100,14.000,0.200,1.000,0.300,0,0.500,0,1.000,1.000,5.000,0
"05/06/08","07:14:12",19.000,"cc",28042.191,6,0.100,15.000,0.200,4.000,0.300,0,0.500,0,1.000,0,5.000,0
"05/06/08","07:14:18",14.000,"cc",28046.848,6,0.100,14.000,0.200,0,0.300,0,0.500,0,1.000,0,5.000,0
"05/06/08","07:14:24",21.000,"cc",28115.565,6,0.100,17.000,0.200,4.000,0.300,0,0.500,0,1.000,0,5.000,0
"05/06/08","07:14:30",15.000,"cc",28190.262,6,0.100,13.000,0.200,2.000,0.300,0,0.500,0,1.000,0,5.000,0
"05/06/08","07:14:36",10.000,"cc",28227.617,6,0.100,8.000,0.200,2.000,0.300,0,0.500,0,1.000,0,5.000,0
"05/06/08","07:14:42",22.000,"cc",28233.041,6,0.100,19.000,0.200,2.000,0.300,1.000,0.500,0,1.000,0,5.000,0
"05/06/08","07:14:48",16.000,"cc",28161.596,6,0.100,14.000,0.200,2.000,0.300,0,0.500,0,1.000,0,5.000,0
"05/06/08","07:14:54",10.000,"cc",28091.377,6,0.100,9.000,0.200,1.000,0.300,0,0.500,0,1.000,0,5.000,0
"05/06/08","07:15:00",24.000,"cc",28180.996,6,0.100,20.000,0.200,4.000,0.300,0,0.500,0,1.000,0,5.000,0
"05/06/08","07:15:06",19.000,"cc",28099.102,6,0.100,17.000,0.200,2.000,0.300,0,0.500,0,1.000,0,5.000,0
"05/06/08","07:15:12",16.000,"cc",28121.772,6,0.100,14.000,0.200,2.000,0.300,0,0.500,0,1.000,0,5.000,0
"05/06/08","07:15:18",16.000,"cc",28193.981,6,0.100,12.000,0.200,3.000,0.300,0,0.500,1.000,1.000,0,5.000,0
"05/06/08","07:15:24",14.000,"cc",28108.738,6,0.100,13.000,0.200,1.000,0.300,0,0.500,0,1.000,0,5.000,0
"05/06/08","07:15:30",13.000,"cc",28121.850,6,0.100,10.000,0.200,2.000,0.300,0,0.500,1.000,1.000,0,5.000,0
"05/06/08","07:15:36",11.000,"cc",28249.850,6,0.100,9.000,0.200,1.000,0.300,0,0.500,0,1.000,1.000,5.000,0
"05/06/08","07:15:42",17.000,"cc",28153.572,6,0.100,14.000,0.200,3.000,0.300,0,0.500,0,1.000,0,5.000,0
"05/06/08","07:15:48",10.000,"cc",28157.350,6,0.100,6.000,0.200,4.000,0.300,0,0.500,0,1.000,0,5.000,0
"05/06/08","07:15:54",21.000,"cc",28052.615,6,0.100,18.000,0.200,3.000,0.300,0,0.500,0,1.000,0,5.000,0
"05/06/08","07:16:00",12.000,"cc",28097.020,6,0.100,9.000,0.200,2.000,0.300,1.000,0.500,0,1.000,0,5.000,0
"05/06/08","07:16:06",17.000,"cc",28054.197,6,0.100,15.000,0.200,2.000,0.300,0,0.500,0,1.000,0,5.000,0
"05/06/08","07:16:12",13.000,"cc",28030.815,6,0.100,11.000,0.200,2.000,0.300,0,0.500,0,1.000,0,5.000,0
"05/06/08","07:16:18",30.000,"cc",28094.981,6,0.100,25.000,0.200,4.000,0.300,1.000,0.500,0,1.000,0,5.000,0
"05/06/08","07:16:24",16.000,"cc",28085.168,6,0.100,14.000,0.200,2.000,0.300,0,0.500,0,1.000,0,5.000,0
"05/06/08","07:16:30",12.000,"cc",28090.498,6,0.100,7.000,0.200,5.000,0.300,0,0.500,0,1.000,0,5.000,0
"05/06/08","07:16:36",15.000,"cc",28182.451,6,0.100,14.000,0.200,1.000,0.300,0,0.500,0,1.000,0,5.000,0
"05/06/08","07:16:42",23.000,"cc",28150.229,6,0.100,18.000,0.200,5.000,0.300,0,0.500,0,1.000,0,5.000,0
"05/06/08","07:16:48",18.000,"cc",28106.166,6,0.100,16.000,0.200,2.000,0.300,0,0.500,0,1.000,0,5.000,0
"05/06/08","07:16:54",46.000,"cc",28141.832,6,0.100,24.000,0.200,6.000,0.300,1.000,0.500,2.000,1.000,13.000,5.000,0
"05/06/08","07:17:00",66.000,"cc",28057.137,6,0.100,25.000,0.200,6.000,0.300,5.000,0.500,8.000,1.000,21.000,5.000,1.000
"05/06/08","07:17:06",73.000,"cc",27977.762,6,0.100,25.000,0.200,12.000,0.300,12.000,0.500,6.000,1.000,17.000,5.000,1.000
"05/06/08","07:17:12",239.000,"cc",27985.100,6,0.100,92.000,0.200,33.000,0.300,18.000,0.500,28.000,1.000,68.000,5.000,0
"05/06/08","07:17:18",2068.000,"cc",28014.836,6,0.100,2038.000,0.200,8.000,0.300,0,0.500,7.000,1.000,10.000,5.000,5.000
"05/06/08","07:17:24",3834.000,"cc",27034.422,6,0.100,2741.000,0.200,540.000,0.300,230.000,0.500,218.000,1.000,104.000,5.000,1.000
"05/06/08","07:17:30",311.000,"cc",26490.041,6,0.100,173.000,0.200,39.000,0.300,18.000,0.500,21.000,1.000,60.000,5.000,0
"05/06/08","07:17:36",80.000,"cc",26403.484,6,0.100,56.000,0.200,8.000,0.300,5.000,0.500,3.000,1.000,8.000,5.000,0
"05/06/08","07:17:42",41.000,"cc",26462.674,6,0.100,22.000,0.200,7.000,0.300,1.000,0.500,2.000,1.000,9.000,5.000,0
"05/06/08","07:17:48",21.000,"cc",26457.326,6,0.100,14.000,0.200,5.000,0.300,0,0.500,0,1.000,2.000,5.000,0
"05/06/08","07:17:54",174.000,"cc",26427.889,6,0.100,58.000,0.200,29.000,0.300,13.000,0.500,25.000,1.000,48.000,5.000,1.000
"05/06/08","07:18:00",52.000,"cc",26307.465,6,0.100,25.000,0.200,8.000,0.300,5.000,0.500,4.000,1.000,10.000,5.000,0
"05/06/08","07:18:06",271.000,"cc",26339.332,6,0.100,82.000,0.200,34.000,0.300,24.000,0.500,34.000,1.000,94.000,5.000,3.000
"05/06/08","07:18:12",22.000,"cc",26301.666,6,0.100,17.000,0.200,2.000,0.300,1.000,0.500,0,1.000,2.000,5.000,0
"05/06/08","07:18:18",112.000,"cc",26417.205,6,0.100,42.000,0.200,14.000,0.300,8.000,0.500,15.000,1.000,33.000,5.000,0
"05/06/08","07:18:24",203.000,"cc",26610.756,6,0.100,60.000,0.200,29.000,0.300,15.000,0.500,23.000,1.000,75.000,5.000,1.000
"05/06/08","07:18:30",185.000,"cc",26836.451,6,0.100,62.000,0.200,22.000,0.300,14.000,0.500,18.000,1.000,68.000,5.000,1.000
"05/06/08","07:18:36",16.000,"cc",27175.104,6,0.100,15.000,0.200,1.000,0.300,0,0.500,0,1.000,0,5.000,0
"05/06/08","07:18:42",15.000,"cc",27494.496,6,0.100,13.000,0.200,2.000,0.300,0,0.500,0,1.000,0,5.000,0
"05/06/08","07:18:48",15.000,"cc",27897.328,6,0.100,12.000,0.200,3.000,0.300,0,0.500,0,1.000,0,5.000,0
"05/06/08","07:18:54",11.000,"cc",28013.412,6,0.100,10.000,0.200,1.000,0.300,0,0.500,0,1.000,0,5.000,0
"05/06/08","07:19:00",3087.000,"cc",27209.264,6,0.100,2043.000,0.200,673.000,0.300,222.000,0.500,79.000,1.000,39.000,5.000,31.000
"05/06/08","07:19:06",232.000,"cc",27093.508,6,0.100,172.000,0.200,39.000,0.300,16.000,0.500,5.000,1.000,0,5.000,0
"05/06/08","07:19:12",28.000,"cc",27983.576,6,0.100,23.000,0.200,3.000,0.300,1.000,0.500,0,1.000,1.000,5.000,0
"05/06/08","07:19:18",16.000,"cc",28024.465,6,0.100,11.000,0.200,4.000,0.300,1.000,0.500,0,1.000,0,5.000,0
"05/06/08","07:19:24",16.000,"cc",28100.951,6,0.100,14.000,0.200,1.000,0.300,1.000,0.500,0,1.000,0,5.000,0
"05/06/08","07:19:30",12.000,"cc",28091.748,6,0.100,10.000,0.200,2.000,0.300,0,0.500,0,1.000,0,5.000,0
"05/06/08","07:19:36",11.000,"cc",28140.307,6,0.100,11.000,0.200,0,0.300,0,0.500,0,1.000,0,5.000,0
"05/06/08","07:19:42",14.000,"cc",28216.664,6,0.100,11.000,0.200,3.000,0.300,0,0.500,0,1.000,0,5.000,0
"05/06/08","07:19:48",23.000,"cc",28162.467,6,0.100,16.000,0.200,6.000,0.300,1.000,0.500,0,1.000,0,5.000,0
"05/06/08","07:19:54",18.000,"cc",28144.379,6,0.100,14.000,0.200,4.000,0.300,0,0.500,0,1.000,0,5.000,0
"05/06/08","07:20:00",15.000,"cc",28044.559,6,0.100,13.000,0.200,2.000,0.300,0,0.500,0,1.000,0,5.000,0
"05/06/08","07:20:06",12.000,"cc",28009.545,6,0.100,11.000,0.200,1.000,0.300,0,0.500,0,1.000,0,5.000,0
"05/06/08","07:20:12",15.000,"cc",28001.697,6,0.100,13.000,0.200,2.000,0.300,0,0.500,0,1.000,0,5.000,0
"05/06/08","07:20:18",18.000,"cc",27969.231,6,0.100,18.000,0.200,0,0.300,0,0.500,0,1.000,0,5.000,0
"05/06/08","07:20:24",13.000,"cc",28031.736,6,0.100,13.000,0.200,0,0.300,0,0.500,0,1.000,0,5.000,0
"05/06/08","07:20:30",17.000,"cc",27981.311,6,0.100,14.000,0.200,1.000,0.300,2.000,0.500,0,1.000,0,5.000,0
"05/06/08","07:20:36",14.000,"cc",27974.264,6,0.100,10.000,0.200,4.000,0.300,0,0.500,0,1.000,0,5.000,0
"05/06/08","07:20:42",26.000,"cc",27998.520,6,0.100,22.000,0.200,4.000,0.300,0,0.500,0,1.000,0,5.000,0
"05/06/08","07:20:48",16.000,"cc",28073.440,6,0.100,12.000,0.200,2.000,0.300,0,0.500,1.000,1.000,1.000,5.000,0
"05/06/08","07:20:54",20.000,"cc",27935.412,6,0.100,16.000,0.200,4.000,0.300,0,0.500,0,1.000,0,5.000,0
"05/06/08","07:21:00",25.000,"cc",27989.859,6,0.100,22.000,0.200,3.000,0.300,0,0.500,0,1.000,0,5.000,0
"05/06/08","07:21:06",13.000,"cc",27967.293,6,0.100,10.000,0.200,3.000,0.300,0,0.500,0,1.000,0,5.000,0
"05/06/08","07:21:12",19.000,"cc",28101.006,6,0.100,16.000,0.200,2.000,0.300,1.000,0.500,0,1.000,0,5.000,0
"05/06/08","07:21:18",15.000,"cc",28032.742,6,0.100,13.000,0.200,2.000,0.300,0,0.500,0,1.000,0,5.000,0
"05/06/08","07:21:24",21.000,"cc",28002.828,6,0.100,17.000,0.200,3.000,0.300,1.000,0.500,0,1.000,0,5.000,0